Miscellaneous Local Product
Issued by NWS Hastings, NE

Home | Current Version | Previous Version | Text Only | Print | Product List | Glossary Off
Versions: 1 2 3 4 5 6 7 8 9 10 11 12 13 14 15 16 17 18 19 20 21 22 23 24 25 26 27 28 29 30 31 32 33 34 35 36 37 38 39 40 41 42 43 44 45 46 47 48 49 50

000
AXUS43 KGID 280202
MISGRI

GID CWA HOURLY WEATHER ROUNDUP
NATIONAL WEATHER SERVICE HASTINGS NE
900 PM CDT TUE JUN 27 2017

NOTE: "FAIR" INDICATES FEW OR NO CLOUDS BELOW 12,000 FEET WITH NO
SIGNIFICANT WEATHER AND/OR OBSTRUCTIONS TO VISIBILITY.

...SOUTH CENTRAL NEBRASKA...

CITY           SKY/WX    TMP DP  RH WIND       PRES   REMARKS
GRAND ISLAND   CLOUDY    79  71  76 SE24      29.69F
HASTINGS       PTCLDY    80  70  71 SE16      29.70F
KEARNEY        CLOUDY    81  68  65 SE14      29.68F
ORD            MOCLDY    80  66  62 SE14      29.65F
AURORA         CLOUDY    79  70  73 SE22      29.71S
LEXINGTON      CLOUDY    87  55  33 SE12      29.66S

...NEBRASKA PANHANDLE...

CITY           SKY/WX    TMP DP  RH WIND       PRES   REMARKS
CHADRON        CLOUDY    68  62  81 E5        29.75R
ALLIANCE       CLOUDY    75  54  47 NE10      29.71F
SCOTTSBLUFF    TSTM      69  58  67 NW25G36   29.78R
SIDNEY         LGT RAIN  67  58  72 NW17      29.78R

...WESTERN AND NORTH CENTRAL NEBRASKA...

CITY           SKY/WX    TMP DP  RH WIND       PRES   REMARKS
VALENTINE      CLOUDY    79  60  52 W6        29.67R
AINSWORTH      CLOUDY    80  65  60 S8        29.65F
ONEILL         CLOUDY    79  67  67 SE17      29.66F
BROKEN BOW     CLOUDY    81  68  64 SE13G23   29.65F
IMPERIAL       CLOUDY    80  48  32 NE9       29.70F
NORTH PLATTE   TSTM      65  62  90 NW18G46   29.77R FOG
MCCOOK         MOCLDY    87  58  37 S17G25    29.64R

...EASTERN NEBRASKA...

CITY           SKY/WX    TMP DP  RH WIND       PRES   REMARKS
NORFOLK        PTCLDY    76  65  68 SE16      29.70F
SO SIOUX CITY  CLOUDY    76  64  66 S21G26    29.74S
TEKAMAH        MOCLDY    77  63  61 SE18G28   29.77R
COLUMBUS       CLEAR     77  67  71 SE12      29.73R
ALBION         CLOUDY    79  66  64 SE12      29.70S
OMAHA EPPLEY   CLOUDY    78  64  61 SE18      29.78F
OFFUTT AFB     MOCLDY    77  65  66 SE15G23   29.77F
MILLARD        CLOUDY    79  68  68 SE15G22   29.78F
LINCOLN        PTCLDY    78  67  68 S17G28    29.74F
NEBRASKA CITY  CLOUDY    77  69  76 S14G20    29.82S
BEATRICE       PTCLDY    78  68  72 SE17G24   29.77F
FALLS CITY     CLEAR     76  66  71 SE15      29.82F

...NORTHERN KANSAS...

CITY           SKY/WX    TMP DP  RH WIND       PRES   REMARKS
GOODLAND       CLOUDY    71  57  61 SE13      29.73F
HILL CITY      MOCLDY    88  60  38 S16G24    29.68R
NORTON         CLEAR     86  48  26 SE15G21   29.66F
PHILLIPSBURG   CLEAR     90  59  35 SE23G30   29.68S
SMITH CENTER   CLEAR     88  61  40 SE21G29   29.70S
HAYS           PTCLDY    86  63  45 S21G28    29.73R
RUSSELL        PTCLDY    87  61  41 S22G29    29.73R
CONCORDIA      CLOUDY    82  70  66 S21G29    29.75R
SALINA         CLEAR     87  66  49 S24G33    29.75S
TOPEKA         CLEAR     78  67  68 SE13      29.85S



USA.gov is the U.S. government's official web portal to all federal, state and local government web resources and services.